Location: Newark
(39.0622°N, 106.5590°E)
Time: 07:26:18
(UTC+00:00)

Courier 1B - Pass Details

Date: 28 January 2020
Orbit: 962 x 1209 km, 28.3° (Epoch: 20 February)

Event Time Altitude Azimuth Distance (km) Brightness Sun altitude
Rises 16:39:07 0° 207° (SSW) 3,681 - -68.3°
Reaches altitude 10° 16:43:12 10° 183° (S) 2,777 - -68.5°
Maximum altitude 16:46:29 14° 153° (SSE) 2,530 - -68.7°
Drops below altitude 10° 16:49:50 10° 124° (SE) 2,863 - -68.8°
Sets 16:54:09 0° 101° (E) 3,880 - -69.0°
